Regional Weather Roundup
Issued by NWS Portland, ME

Current Version | Previous Version | Text Only | Print | Product List | Glossary Off
Versions: 1 2 3 4 5 6 7 8 9 10 11 12 13 14 15 16 17 18 19 20 21 22 23 24 25 26 27 28 29 30 31 32 33 34 35 36 37 38 39 40 41 42 43 44 45 46 47 48 49 50
894 ASUS41 KGYX 222005 RWRGYX WEATHER ROUNDUP FOR MAINE AND NEW HAMPSHIRE NATIONAL WEATHER SERVICE GRAY ME 400 PM EDT TUE MAY 22 2018 MEZ002-005-006-010-012-015-018-020-021-024-026-027-029-222100- MAINE CITY SKY/WX TMP DP RH WIND PRES REMARKS PORTLAND LGT RAIN 60 54 80 S3 30.08F SANFORD LGT RAIN 62 56 80 SW7 30.09F BAR HARBOR FAIR 63 48 58 SW13 30.08F WISCASSET PTSUNNY 63 48 58 S5 30.08F ROCKLAND FAIR 57 49 74 S3 30.08F FRYEBURG CLOUDY 63 53 70 VRB3 30.08F LEWISTONAUBURN FAIR 65 51 60 S8 30.07S AUGUSTA FAIR 70 43 37 S10G18 30.05F WATERVILLE FAIR 70 46 42 VRB5 29.99F BANGOR CLOUDY 69 40 34 S12G22 30.04F GREENVILLE N/A 67 38 34 S10G18 30.00F MILLINOCKET FAIR 74 39 28 SW8 30.00F HOULTON FAIR 75 39 27 S14G29 29.95F PRESQUE ISLE PTSUNNY 74 39 28 S18G26 29.91F FRENCHVILLE FAIR 74 42 31 SW10 29.89F CARIBOU PTSUNNY 74 38 27 SW13G20 29.89F $$ NHZ002-005-008-009-011-012-014-222100- NEW HAMPSHIRE CITY SKY/WX TMP DP RH WIND PRES REMARKS PORTSMOUTH LGT RAIN 62 58 85 E3 30.07F ROCHESTER LGT RAIN 62 59 90 CALM 30.08F NASHUA LGT RAIN 64 60 87 CALM 30.07F MANCHESTER LGT RAIN 65 57 75 E6 30.05F CONCORD LGT RAIN 60 57 89 CALM 30.07F LACONIA LGT RAIN 60 54 80 CALM 30.10S PLYMOUTH LGT RAIN 59 55 86 CALM 30.07F BERLIN LGT RAIN 62 54 74 SW5 30.06F WHITEFIELD LGT RAIN 61 55 81 CALM 30.06F JAFFREY LGT RAIN 61 57 87 S5 30.08F KEENE CLOUDY 62 57 83 S5 30.08R LEBANON LGT RAIN 61 54 77 S5 30.04F MT WASHINGTON LGT RAIN 37 37 100 S33G44 N/A VSB 0 $$ VTZ005-007-008-222100- VERMONT CITY SKY/WX TMP DP RH WIND PRES REMARKS ST JOHNSBURY N/A 60 55 83 MISG 30.04F MONTPELIER LGT RAIN 57 55 93 S9 30.08F BURLINGTON LGT RAIN 61 57 87 SE8 29.99F $$ MAZ007-012-024-CTZ003-RIZ002-NYZ038-NYZ072-222100- SOUTHERN NEW ENGLAND AND NY CITY SKY/WX TMP DP RH WIND PRES REMARKS BOSTON LGT RAIN 58 55 90 E7 30.07F WORCESTER LGT RAIN 61 52 72 S9 30.09F NANTUCKET CLOUDY 57 47 69 S7 30.14S PROVIDENCE LGT RAIN 64 52 64 S13 30.11S HARTFORD LGT RAIN 62 56 80 S10 30.09F ALBANY LGT RAIN 62 56 80 SE7 30.01F NEW YORK CITY LGT RAIN 60 48 64 CALM 30.07F $$ ANZ081-ANZ082-ANZ150-NHZ014-MEZ023>029-222100- COASTAL MARINE OBSERVATIONS STATION/POSITION TIME TEMP WIND PRES WAVE AIR SEA DIR/SP/G HT/PER (UTC) (F) (DEG/KT/KT) (MB) (FT/S) MOUNT DESERT ROC 2000 50 160/ 12/ 13 1019.4F MATINICUS ROCK 1900 52 180/ 9/ 9 1019.2F ISLE OF SHOALS 1900 57 50/ 3/ 3 1018.9F JEFFREYS LEDGE 1936 53 N/A 2/ 8 CASHES LEDGE BUO 1950 52 51 1019.0F 2/ 8 $$ .............KEY.............. WCI - WIND CHILL TC - TEMPERATURE IN CELSIUS VSB - VISIBILITY IN MILES HX - HEAT INDEX FAIR- INDICATES FEW OR NO CLOUDS BELOW 12,000 FT, WITH NO SIGNIFICANT WEATHER AND/OR OBSTRUCTIONS TO VISIBILITY.

USA.gov is the U.S. government's official web portal to all federal, state and local government web resources and services.